QPF
0.01 0.01 0.01 0.02 0.02 0.01 0.01 0.02 0.02 0.03 0.05 0.06 0.05 0.05 0.06 0.06 0.06 0.06 0.07 0.08 0.08 0.08 0.08 0.12 0.15 0.14 0.13 0.14 0.15 0.16 0.19 0.19 0.17 0.16 0.14 0.12 0.10 0.09 0.10 0.10 0.09 0.10 0.10
0.01 0.01 0.02 0.03 0.03 0.03 0.03 0.03 0.02 0.02 0.03 0.03 0.04 0.04 0.05 0.05 0.05 0.06 0.07 0.09 0.08 0.06 0.05 0.09 0.12 0.14 0.14 0.14 0.17 0.20 0.20 0.19 0.19 0.18 0.18 0.18 0.17 0.13 0.10 0.10 0.09 0.09 0.10
0.02 0.01 0.02 0.02 0.02 0.02 0.03 0.03 0.03 0.03 0.03 0.03 0.03 0.04 0.03 0.04 0.04 0.06 0.08 0.10 0.11 0.09 0.07 0.07 0.10 0.13 0.15 0.17 0.19 0.23 0.24 0.23 0.22 0.22 0.22 0.21 0.19 0.17 0.16 0.14 0.12 0.11 0.11
0.03 0.02 0.01 0.02 0.02 0.02 0.02 0.02 0.02 0.02 0.03 0.03 0.04 0.04 0.04 0.04 0.05 0.05 0.06 0.08 0.09 0.09 0.08 0.08 0.09 0.11 0.12 0.15 0.19 0.26 0.33 0.34 0.35 0.36 0.33 0.26 0.20 0.19 0.20 0.20 0.16 0.13 0.11
0.02 0.03 0.03 0.03 0.03 0.03 0.02 0.03 0.02 0.02 0.02 0.03 0.04 0.05 0.05 0.05 0.05 0.05 0.04 0.05 0.05 0.05 0.07 0.08 0.08 0.08 0.09 0.10 0.13 0.20 0.28 0.34 0.38 0.43 0.43 0.37 0.31 0.25 0.22 0.24 0.22 0.18 0.15
0.03 0.03 0.03 0.02 0.03 0.03 0.03 0.02 0.03 0.03 0.03 0.02 0.03 0.04 0.04 0.04 0.04 0.04 0.03 0.03 0.04 0.05 0.05 0.06 0.05 0.05 0.05 0.07 0.10 0.15 0.19 0.23 0.31 0.36 0.38 0.38 0.37 0.33 0.27 0.25 0.26 0.24 0.21
0.01 0.01 0.02 0.01 0.01 0.02 0.02 0.02 0.02 0.02 0.03 0.03 0.03 0.03 0.03 0.03 0.04 0.04 0.03 0.02 0.02 0.03 0.03 0.05 0.05 0.04 0.04 0.07 0.10 0.13 0.17 0.19 0.23 0.28 0.33 0.36 0.37 0.35 0.32 0.30 0.28 0.26 0.23
0.01 0.03 0.05 0.04 0.04 0.03 0.02 0.02 0.03 0.04 0.05 0.05 0.06 0.04 0.03 0.03 0.03 0.03 0.04 0.02 0.02 0.02 0.02 0.03 0.03 0.04 0.05 0.07 0.08 0.11 0.15 0.18 0.20 0.22 0.23 0.26 0.30 0.31 0.29 0.29 0.27 0.25 0.23
0.04 0.05 0.07 0.08 0.09 0.08 0.04 0.03 0.04 0.06 0.06 0.06 0.06 0.05 0.03 0.03 0.02 0.02 0.03 0.02 0.01 0.01 0.01 0.01 0.02 0.03 0.04 0.05 0.07 0.08 0.08 0.10 0.14 0.16 0.16 0.17 0.19 0.19 0.19 0.20 0.19 0.18 0.19
0.05 0.03 0.02 0.02 0.03 0.05 0.03 0.02 0.02 0.03 0.03 0.02 0.02 0.03 0.03 0.03 0.02 0.02 0.01 0.01 0.01 0.02 0.02 0.02 0.02 0.03 0.04 0.05 0.05 0.07 0.06 0.05 0.07 0.08 0.08 0.09 0.10 0.11 0.12 0.12 0.12 0.12 0.12
0.03 0.03 0.02 0.02 0.02 0.03 0.03 0.01 0.01 0.01 0.01 0.01 0.02 0.02 0.02 0.02 0.02 0.02 0.01 0.01 0.01 0.02 0.03 0.03 0.03 0.03 0.02 0.02 0.03 0.05 0.05 0.04 0.04 0.04 0.04 0.04 0.04 0.05 0.05 0.06 0.06 0.07 0.07
0.03 0.02 0.02 0.01 0.01 0.01 0.02 0.01 0.01 0.01 0.01 0.01 0.02 0.01 0.01 0.02 0.02 0.01 0.01 0.01 0.01 0.01 0.02 0.02 0.02 0.01 0.01 0.01 0.02 0.02 0.03 0.03 0.02 0.02 0.03 0.03 0.03 0.03 0.03 0.03 0.04 0.04 0.04
0.02 0.01 0.01 0.01 0.00 0.01 0.01 0.01 0.01 0.01 0.01 0.01 0.01 0.02 0.01 0.01 0.01 0.01 0.01 0.01 0.01 0.01 0.01 0.01 0.01 0.01 0.01 0.01 0.01 0.01 0.01 0.01 0.01 0.01 0.01 0.02 0.02 0.02 0.01 0.01 0.02 0.02 0.01
0.01 0.01 0.01 0.01 0.01 0.01 0.01 0.01 0.01 0.01 0.01 0.01 0.01 0.02 0.02 0.02 0.01 0.01 0.01 0.01 0.01 0.01 0.01 0.01 0.01 0.00 0.00 0.00 0.00 0.00 0.00 0.00 0.00 0.00 0.00 0.01 0.01 0.01 0.01 0.00 0.00 0.00 0.00
0.01 0.01 0.01 0.01 0.01 0.01 0.01 0.01 0.01 0.01 0.01 0.01 0.01 0.03 0.03 0.02 0.02 0.02 0.01 0.01 0.01 0.01 0.01 0.01 0.01 0.01 0.01 0.01 0.00 0.00 0.00 0.00 0.00 0.00 0.00 0.00 0.00 0.00 0.00 0.00 0.00 0.00 0.00
0.01 0.01 0.02 0.02 0.02 0.01 0.01 0.01 0.01 0.01 0.02 0.01 0.02 0.02 0.03 0.02 0.02 0.02 0.01 0.01 0.01 0.01 0.01 0.01 0.01 0.01 0.01 0.00 0.00 0.00 0.00 0.00 0.00 0.00 0.00 0.00 0.00 0.00 0.00 0.00 0.00 0.00 0.00
0.01 0.01 0.02 0.02 0.02 0.01 0.01 0.01 0.01 0.01 0.02 0.02 0.02 0.02 0.03 0.02 0.01 0.01 0.01 0.02 0.02 0.02 0.01 0.01 0.01 0.00 0.00 0.00 0.00 0.01 0.01 0.00 0.00 0.00 0.00 0.00 0.00 0.00 0.00 0.00 0.00 0.00 0.00
0.01 0.01 0.01 0.01 0.01 0.01 0.01 0.01 0.01 0.01 0.02 0.03 0.03 0.02 0.02 0.02 0.02 0.02 0.02 0.02 0.02 0.02 0.01 0.01 0.01 0.01 0.00 0.00 0.00 0.00 0.00 0.00 0.00 0.00 0.00 0.00 0.00 0.00 0.00 0.00 0.00 0.00 0.00
0.01 0.01 0.01 0.01 0.01 0.01 0.01 0.01 0.02 0.02 0.03 0.03 0.03 0.02 0.02 0.02 0.03 0.03 0.02 0.02 0.02 0.02 0.01 0.01 0.01 0.01 0.00 0.00 0.00 0.00 0.00 0.00 0.00 0.00 0.00 0.00 0.00 0.00 0.00 0.00 0.00 0.00 0.00
0.02 0.01 0.01 0.01 0.02 0.01 0.02 0.02 0.02 0.02 0.03 0.03 0.03 0.02 0.02 0.01 0.02 0.01 0.01 0.01 0.01 0.01 0.00 0.01 0.01 0.00 0.00 0.00 0.00 0.00 0.00 0.00 0.00 0.00 0.00 0.00 0.00 0.00 0.00 0.00 0.01 0.01 0.00
0.02 0.01 0.01 0.02 0.02 0.02 0.03 0.03 0.02 0.02 0.02 0.02 0.02 0.02 0.02 0.01 0.01 0.01 0.01 0.01 0.01 0.01 0.01 0.01 0.01 0.00 0.00 0.00 0.00 0.00 0.00 0.00 0.00 0.00 0.00 0.00 0.00 0.00 0.00 0.00 0.01 0.00 0.00
0.01 0.01 0.02 0.02 0.02 0.02 0.02 0.02 0.02 0.02 0.02 0.03 0.03 0.02 0.02 0.01 0.02 0.02 0.01 0.01 0.01 0.01 0.01 0.01 0.01 0.00 0.00 0.00 0.00 0.00 0.00 0.00 0.00 0.00 0.00 0.00 0.00 0.00 0.00 0.00 0.00 0.00 0.00
0.01 0.02 0.02 0.02 0.02 0.01 0.02 0.02 0.02 0.02 0.02 0.03 0.03 0.02 0.02 0.02 0.02 0.02 0.02 0.02 0.02 0.01 0.01 0.00 0.00 0.00 0.00 0.00 0.00 0.00 0.00 0.00 0.00 0.00 0.00 0.00 0.00 0.00 0.00 0.00 0.00 0.00 0.01
0.02 0.03 0.03 0.03 0.02 0.02 0.02 0.02 0.02 0.02 0.03 0.04 0.04 0.03 0.02 0.02 0.02 0.02 0.02 0.01 0.01 0.01 0.01 0.00 0.00 0.00 0.00 0.00 0.00 0.00 0.00 0.00 0.00 0.00 0.00 0.00 0.00 0.00 0.00 0.00 0.00 0.00 0.00
0.01 0.01 0.02 0.02 0.02 0.01 0.02 0.02 0.02 0.03 0.04 0.04 0.03 0.02 0.01 0.01 0.01 0.01 0.01 0.01 0.01 0.01 0.01 0.00 0.00 0.00 0.00 0.00 0.00 0.00 0.00 0.00 0.00 0.00 0.00 0.00 0.00 0.00 0.00 0.00 0.00 0.00 0.00
0.01 0.02 0.02 0.02 0.01 0.01 0.02 0.01 0.01 0.02 0.03 0.03 0.02 0.01 0.01 0.01 0.01 0.01 0.00 0.00 0.00 0.00 0.00 0.00 0.00 0.00 0.00 0.00 0.00 0.00 0.00 0.00 0.00 0.00 0.00 0.00 0.00 0.00 0.00 0.00 0.00 0.00 0.00
MSLP
1018.37 1018.39 1018.38 1018.37 1018.36 1018.35 1018.34 1018.31 1018.26 1018.15 1017.99 1017.78 1017.54 1017.30 1017.09 1016.94 1016.86 1016.84 1016.86 1016.89 1016.89 1016.82 1016.66 1016.41 1016.11 1015.81 1015.57 1015.46 1015.51 1015.75 1016.17 1016.73 1017.37 1018.01 1018.60 1019.09 1019.45 1019.69 1019.82 1019.90 1019.97 1020.07 1020.23
1018.62 1018.77 1018.88 1018.95 1019.00 1019.02 1019.01 1018.97 1018.87 1018.72 1018.52 1018.26 1017.97 1017.68 1017.41 1017.19 1017.03 1016.94 1016.90 1016.87 1016.81 1016.69 1016.50 1016.23 1015.91 1015.59 1015.32 1015.17 1015.18 1015.38 1015.77 1016.31 1016.95 1017.62 1018.27 1018.84 1019.30 1019.65 1019.91 1020.11 1020.28 1020.46 1020.67
1018.61 1018.93 1019.17 1019.35 1019.46 1019.51 1019.50 1019.44 1019.32 1019.14 1018.91 1018.63 1018.32 1018.00 1017.70 1017.43 1017.23 1017.08 1016.97 1016.87 1016.77 1016.62 1016.40 1016.13 1015.80 1015.47 1015.19 1015.01 1014.97 1015.11 1015.42 1015.90 1016.48 1017.12 1017.77 1018.38 1018.93 1019.40 1019.80 1020.15 1020.46 1020.78 1021.10
1018.44 1018.93 1019.32 1019.61 1019.78 1019.86 1019.85 1019.77 1019.63 1019.43 1019.19 1018.92 1018.62 1018.30 1018.00 1017.72 1017.48 1017.28 1017.12 1016.98 1016.83 1016.65 1016.43 1016.15 1015.84 1015.53 1015.24 1015.03 1014.94 1015.00 1015.21 1015.56 1016.04 1016.60 1017.20 1017.81 1018.41 1018.98 1019.52 1020.04 1020.54 1021.03 1021.51
1018.22 1018.88 1019.41 1019.79 1020.02 1020.12 1020.11 1020.01 1019.85 1019.65 1019.42 1019.17 1018.90 1018.62 1018.33 1018.06 1017.80 1017.58 1017.38 1017.19 1017.01 1016.81 1016.59 1016.34 1016.05 1015.76 1015.48 1015.26 1015.11 1015.07 1015.16 1015.38 1015.71 1016.14 1016.65 1017.21 1017.83 1018.47 1019.14 1019.83 1020.52 1021.21 1021.87
1018.06 1018.88 1019.53 1019.99 1020.27 1020.37 1020.35 1020.23 1020.06 1019.86 1019.65 1019.43 1019.20 1018.96 1018.72 1018.46 1018.21 1017.96 1017.73 1017.51 1017.30 1017.09 1016.87 1016.64 1016.39 1016.13 1015.88 1015.65 1015.46 1015.33 1015.30 1015.36 1015.53 1015.81 1016.20 1016.69 1017.29 1017.98 1018.75 1019.58 1020.45 1021.33 1022.18
1018.06 1019.00 1019.74 1020.26 1020.56 1020.67 1020.63 1020.49 1020.30 1020.10 1019.91 1019.73 1019.55 1019.36 1019.15 1018.92 1018.67 1018.41 1018.14 1017.89 1017.65 1017.43 1017.22 1017.01 1016.80 1016.59 1016.36 1016.14 1015.92 1015.73 1015.59 1015.51 1015.53 1015.66 1015.91 1016.31 1016.86 1017.56 1018.40 1019.34 1020.36 1021.39 1022.40
1018.25 1019.27 1020.08 1020.63 1020.94 1021.04 1020.97 1020.82 1020.62 1020.42 1020.25 1020.10 1019.96 1019.81 1019.63 1019.41 1019.16 1018.88 1018.58 1018.29 1018.02 1017.78 1017.58 1017.39 1017.22 1017.05 1016.86 1016.66 1016.44 1016.20 1015.98 1015.80 1015.69 1015.68 1015.82 1016.12 1016.61 1017.28 1018.14 1019.15 1020.26 1021.40 1022.51
1018.62 1019.68 1020.52 1021.08 1021.39 1021.47 1021.39 1021.21 1021.01 1020.81 1020.65 1020.53 1020.41 1020.29 1020.13 1019.92 1019.66 1019.35 1019.02 1018.69 1018.39 1018.13 1017.92 1017.75 1017.61 1017.48 1017.33 1017.16 1016.95 1016.70 1016.44 1016.19 1015.99 1015.88 1015.92 1016.13 1016.55 1017.18 1018.02 1019.03 1020.16 1021.34 1022.51
1019.09 1020.17 1021.01 1021.57 1021.86 1021.93 1021.84 1021.65 1021.44 1021.26 1021.11 1021.00 1020.90 1020.79 1020.64 1020.43 1020.15 1019.81 1019.45 1019.09 1018.75 1018.47 1018.25 1018.09 1017.97 1017.87 1017.76 1017.62 1017.43 1017.20 1016.92 1016.65 1016.40 1016.24 1016.21 1016.35 1016.69 1017.26 1018.04 1019.00 1020.09 1021.24 1022.39
1019.59 1020.66 1021.48 1022.02 1022.30 1022.35 1022.26 1022.08 1021.88 1021.70 1021.57 1021.47 1021.39 1021.28 1021.13 1020.91 1020.62 1020.27 1019.89 1019.50 1019.15 1018.85 1018.62 1018.46 1018.35 1018.27 1018.19 1018.08 1017.92 1017.70 1017.45 1017.18 1016.93 1016.74 1016.68 1016.76 1017.04 1017.53 1018.22 1019.09 1020.08 1021.13 1022.18
1020.04 1021.07 1021.85 1022.37 1022.63 1022.68 1022.59 1022.43 1022.25 1022.10 1021.98 1021.90 1021.83 1021.74 1021.59 1021.38 1021.09 1020.74 1020.36 1019.98 1019.63 1019.33 1019.10 1018.94 1018.83 1018.75 1018.68 1018.58 1018.44 1018.26 1018.03 1017.78 1017.55 1017.37 1017.30 1017.35 1017.58 1017.98 1018.56 1019.29 1020.14 1021.05 1021.97
1020.39 1021.37 1022.10 1022.57 1022.81 1022.87 1022.79 1022.66 1022.51 1022.39 1022.30 1022.24 1022.19 1022.12 1021.99 1021.80 1021.55 1021.23 1020.89 1020.54 1020.22 1019.94 1019.73 1019.57 1019.46 1019.37 1019.29 1019.19 1019.05 1018.88 1018.68 1018.47 1018.27 1018.11 1018.04 1018.09 1018.26 1018.58 1019.05 1019.64 1020.32 1021.06 1021.81
1020.64 1021.54 1022.20 1022.63 1022.85 1022.90 1022.85 1022.75 1022.64 1022.55 1022.50 1022.47 1022.44 1022.40 1022.31 1022.17 1021.98 1021.73 1021.46 1021.18 1020.92 1020.70 1020.51 1020.37 1020.25 1020.15 1020.04 1019.92 1019.77 1019.60 1019.41 1019.22 1019.06 1018.94 1018.89 1018.92 1019.06 1019.31 1019.67 1020.12 1020.63 1021.20 1021.77
1020.80 1021.60 1022.19 1022.56 1022.76 1022.81 1022.77 1022.70 1022.63 1022.58 1022.56 1022.56 1022.57 1022.57 1022.54 1022.46 1022.35 1022.20 1022.04 1021.86 1021.70 1021.55 1021.41 1021.29 1021.17 1021.04 1020.90 1020.74 1020.57 1020.38 1020.19 1020.02 1019.89 1019.81 1019.78 1019.83 1019.94 1020.14 1020.40 1020.72 1021.08 1021.48 1021.90
1020.91 1021.61 1022.12 1022.43 1022.59 1022.64 1022.61 1022.56 1022.52 1022.50 1022.51 1022.54 1022.58 1022.62 1022.65 1022.66 1022.64 1022.61 1022.57 1022.52 1022.47 1022.41 1022.34 1022.25 1022.13 1021.99 1021.81 1021.61 1021.40 1021.19 1021.00 1020.84 1020.73 1020.68 1020.69 1020.75 1020.86 1021.01 1021.20 1021.41 1021.65 1021.91 1022.19
1021.01 1021.61 1022.03 1022.29 1022.41 1022.45 1022.43 1022.40 1022.37 1022.37 1022.39 1022.44 1022.51 1022.58 1022.67 1022.75 1022.83 1022.91 1023.00 1023.08 1023.14 1023.18 1023.19 1023.14 1023.04 1022.89 1022.69 1022.45 1022.21 1021.98 1021.78 1021.63 1021.55 1021.53 1021.57 1021.65 1021.76 1021.89 1022.03 1022.17 1022.31 1022.46 1022.62
1021.12 1021.63 1021.98 1022.18 1022.28 1022.31 1022.29 1022.26 1022.24 1022.24 1022.27 1022.32 1022.40 1022.49 1022.61 1022.75 1022.91 1023.09 1023.29 1023.48 1023.65 1023.79 1023.87 1023.87 1023.80 1023.65 1023.45 1023.20 1022.94 1022.70 1022.50 1022.37 1022.32 1022.33 1022.39 1022.50 1022.62 1022.74 1022.84 1022.92 1022.99 1023.06 1023.13
1021.23 1021.68 1021.98 1022.15 1022.23 1022.25 1022.24 1022.22 1022.20 1022.20 1022.21 1022.25 1022.31 1022.41 1022.53 1022.70 1022.92 1023.16 1023.44 1023.71 1023.98 1024.19 1024.34 1024.40 1024.37 1024.24 1024.05 1023.81 1023.56 1023.33 1023.16 1023.05 1023.02 1023.06 1023.16 1023.28 1023.41 1023.52 1023.60 1023.64 1023.65 1023.65 1023.66
1021.34 1021.74 1022.02 1022.19 1022.27 1022.31 1022.31 1022.29 1022.27 1022.26 1022.26 1022.27 1022.31 1022.38 1022.49 1022.66 1022.89 1023.17 1023.49 1023.82 1024.14 1024.42 1024.62 1024.74 1024.75 1024.67 1024.51 1024.31 1024.09 1023.90 1023.75 1023.68 1023.68 1023.75 1023.86 1023.99 1024.12 1024.22 1024.27 1024.27 1024.24 1024.18 1024.13
1021.41 1021.81 1022.09 1022.27 1022.39 1022.45 1022.48 1022.48 1022.47 1022.45 1022.42 1022.41 1022.41 1022.45 1022.53 1022.68 1022.89 1023.17 1023.50 1023.85 1024.21 1024.52 1024.78 1024.94 1025.01 1024.98 1024.88 1024.73 1024.57 1024.42 1024.32 1024.28 1024.30 1024.38 1024.50 1024.62 1024.73 1024.80 1024.82 1024.78 1024.71 1024.60 1024.50
1021.44 1021.85 1022.16 1022.38 1022.54 1022.65 1022.72 1022.75 1022.76 1022.74 1022.70 1022.66 1022.63 1022.63 1022.68 1022.79 1022.97 1023.23 1023.54 1023.89 1024.26 1024.59 1024.88 1025.09 1025.21 1025.25 1025.21 1025.13 1025.02 1024.93 1024.87 1024.85 1024.89 1024.96 1025.06 1025.15 1025.22 1025.25 1025.23 1025.15 1025.03 1024.89 1024.74
1021.41 1021.85 1022.21 1022.49 1022.71 1022.87 1022.99 1023.07 1023.10 1023.09 1023.06 1023.00 1022.95 1022.92 1022.93 1023.01 1023.15 1023.38 1023.66 1024.00 1024.36 1024.70 1025.01 1025.26 1025.43 1025.53 1025.55 1025.53 1025.48 1025.43 1025.39 1025.38 1025.41 1025.46 1025.51 1025.56 1025.58 1025.55 1025.48 1025.36 1025.20 1025.03 1024.86
1021.37 1021.84 1022.24 1022.57 1022.85 1023.07 1023.25 1023.36 1023.43 1023.45 1023.42 1023.37 1023.31 1023.27 1023.25 1023.30 1023.42 1023.61 1023.88 1024.19 1024.54 1024.88 1025.20 1025.48 1025.69 1025.83 1025.90 1025.93 1025.92 1025.89 1025.86 1025.84 1025.83 1025.83 1025.83 1025.81 1025.76 1025.68 1025.56 1025.40 1025.23 1025.04 1024.86
1021.32 1021.82 1022.25 1022.63 1022.95 1023.23 1023.44 1023.60 1023.70 1023.75 1023.75 1023.71 1023.66 1023.61 1023.60 1023.63 1023.73 1023.91 1024.15 1024.45 1024.78 1025.12 1025.45 1025.73 1025.96 1026.13 1026.24 1026.29 1026.29 1026.26 1026.22 1026.16 1026.10 1026.04 1025.97 1025.88 1025.78 1025.64 1025.48 1025.31 1025.13 1024.95 1024.79
1021.31 1021.81 1022.26 1022.67 1023.02 1023.32 1023.57 1023.76 1023.89 1023.96 1023.98 1023.97 1023.93 1023.90 1023.89 1023.93 1024.03 1024.19 1024.43 1024.71 1025.03 1025.36 1025.69 1025.97 1026.21 1026.38 1026.49 1026.54 1026.54 1026.49 1026.41 1026.30 1026.19 1026.06 1025.93 1025.78 1025.63 1025.46 1025.29 1025.12 1024.96 1024.82 1024.69
Thickness
5692 5691 5690 5689 5689 5688 5688 5688 5688 5688 5688 5688 5688 5687 5686 5685 5685 5684 5683 5684 5685 5686 5687 5688 5689 5689 5690 5691 5692 5692 5691 5690 5688 5682 5678 5676 5676 5677 5677 5677 5677 5677 5678
5684 5681 5680 5679 5678 5677 5677 5678 5678 5678 5679 5679 5678 5677 5677 5677 5676 5676 5675 5676 5678 5679 5681 5682 5683 5685 5685 5685 5685 5686 5686 5684 5684 5681 5674 5668 5665 5665 5666 5667 5668 5667 5667
5675 5673 5671 5669 5667 5666 5666 5667 5667 5668 5669 5670 5670 5670 5669 5669 5668 5668 5669 5668 5670 5671 5673 5675 5676 5679 5681 5681 5681 5682 5682 5679 5678 5679 5675 5668 5665 5659 5655 5656 5657 5657 5656
5669 5666 5662 5658 5657 5655 5656 5656 5657 5658 5659 5660 5662 5661 5661 5660 5658 5658 5660 5660 5662 5664 5665 5667 5669 5671 5674 5674 5675 5677 5677 5676 5673 5672 5671 5670 5668 5660 5650 5645 5645 5645 5644
5661 5657 5653 5649 5646 5646 5646 5646 5646 5647 5649 5650 5651 5651 5650 5649 5649 5649 5650 5651 5652 5654 5656 5658 5660 5663 5664 5665 5667 5669 5669 5669 5668 5667 5664 5662 5660 5658 5652 5641 5635 5633 5632
5652 5647 5643 5640 5638 5636 5636 5636 5636 5637 5637 5639 5639 5639 5639 5639 5639 5639 5640 5642 5643 5644 5646 5648 5650 5653 5655 5656 5658 5659 5660 5660 5660 5659 5658 5657 5654 5651 5647 5639 5632 5627 5621
5644 5639 5635 5632 5629 5626 5625 5626 5626 5625 5626 5627 5627 5627 5628 5628 5629 5629 5630 5631 5633 5634 5634 5637 5639 5642 5644 5645 5647 5648 5649 5650 5650 5649 5648 5648 5647 5646 5643 5637 5627 5619 5612
5636 5630 5625 5622 5619 5616 5615 5615 5615 5615 5615 5615 5615 5615 5616 5617 5618 5618 5619 5619 5621 5622 5623 5626 5628 5630 5632 5635 5637 5638 5638 5638 5639 5639 5638 5638 5637 5637 5635 5632 5624 5615 5607
5626 5621 5616 5612 5608 5605 5604 5604 5604 5604 5604 5604 5604 5604 5604 5605 5606 5607 5608 5610 5610 5611 5612 5614 5617 5619 5620 5623 5625 5626 5627 5628 5628 5628 5628 5628 5626 5626 5625 5623 5621 5616 5607
5619 5613 5608 5604 5599 5597 5595 5594 5594 5594 5594 5594 5593 5593 5592 5593 5594 5596 5597 5598 5598 5599 5601 5603 5605 5607 5609 5610 5613 5614 5615 5616 5616 5616 5616 5616 5616 5615 5614 5612 5611 5609 5606
5612 5605 5601 5596 5592 5589 5587 5586 5585 5584 5584 5583 5583 5582 5582 5583 5584 5585 5585 5586 5587 5589 5591 5592 5594 5596 5597 5598 5600 5601 5602 5604 5605 5605 5605 5604 5605 5605 5604 5603 5602 5600 5599
5605 5599 5593 5589 5585 5582 5579 5577 5576 5575 5574 5573 5572 5571 5571 5572 5573 5573 5574 5575 5576 5578 5579 5581 5582 5584 5585 5586 5588 5589 5591 5592 5593 5593 5594 5594 5594 5594 5594 5593 5592 5590 5588
5597 5591 5586 5581 5577 5573 5570 5568 5566 5565 5564 5563 5562 5561 5561 5561 5561 5562 5563 5564 5565 5566 5568 5570 5571 5572 5573 5574 5575 5577 5579 5580 5580 5581 5582 5582 5583 5583 5582 5582 5581 5580 5578
5590 5584 5578 5572 5568 5565 5562 5559 5557 5555 5554 5553 5552 5551 5550 5550 5550 5551 5552 5553 5554 5556 5557 5559 5560 5561 5562 5562 5563 5565 5566 5567 5567 5568 5569 5569 5570 5570 5570 5570 5568 5568 5566
5583 5577 5571 5565 5561 5557 5554 5551 5549 5547 5546 5544 5543 5541 5540 5540 5541 5541 5541 5542 5544 5546 5547 5548 5549 5549 5550 5550 5552 5554 5555 5555 5556 5556 5556 5555 5554 5554 5556 5558 5557 5557 5556
5576 5570 5564 5558 5553 5550 5547 5544 5541 5539 5538 5536 5535 5533 5532 5532 5531 5531 5532 5533 5534 5535 5537 5538 5538 5538 5537 5535 5538 5542 5544 5544 5545 5545 5545 5545 5544 5542 5542 5541 5542 5543 5545
5571 5564 5558 5553 5547 5543 5540 5537 5534 5532 5531 5529 5527 5526 5525 5524 5524 5524 5524 5524 5524 5526 5527 5527 5527 5526 5523 5524 5526 5529 5533 5533 5533 5534 5535 5536 5533 5535 5534 5531 5530 5530 5529
5566 5558 5553 5546 5540 5536 5533 5531 5528 5526 5524 5522 5521 5519 5518 5517 5516 5516 5516 5516 5516 5517 5517 5518 5517 5517 5513 5514 5516 5519 5523 5523 5522 5523 5524 5524 5524 5523 5524 5526 5525 5524 5521
5560 5553 5547 5540 5535 5531 5528 5525 5522 5521 5519 5517 5515 5514 5513 5512 5511 5510 5509 5510 5509 5509 5510 5510 5509 5509 5506 5505 5508 5511 5515 5514 5514 5514 5514 5515 5514 5510 5512 5517 5518 5516 5514
5554 5547 5541 5535 5530 5526 5523 5521 5518 5516 5514 5512 5510 5509 5508 5507 5506 5505 5504 5504 5504 5504 5504 5503 5502 5502 5500 5498 5501 5503 5511 5509 5510 5508 5507 5503 5503 5503 5504 5509 5510 5509 5508
5548 5542 5536 5530 5526 5522 5520 5517 5515 5513 5511 5509 5507 5505 5504 5503 5502 5501 5500 5500 5500 5499 5498 5497 5496 5495 5493 5493 5494 5496 5502 5505 5506 5506 5504 5499 5496 5496 5497 5498 5500 5498 5499
5543 5537 5531 5526 5523 5520 5518 5515 5512 5510 5508 5506 5504 5503 5502 5502 5500 5498 5497 5497 5497 5496 5495 5495 5494 5493 5490 5488 5488 5489 5491 5493 5498 5499 5498 5494 5491 5491 5491 5493 5492 5493 5494
5540 5534 5529 5524 5521 5519 5517 5514 5511 5509 5507 5505 5502 5501 5500 5499 5498 5497 5496 5496 5496 5498 5497 5497 5496 5494 5492 5488 5486 5486 5487 5488 5492 5491 5487 5487 5488 5488 5490 5488 5489 5492 5496
5537 5532 5528 5524 5520 5517 5515 5512 5509 5507 5505 5503 5501 5500 5499 5498 5497 5497 5498 5498 5498 5498 5498 5498 5496 5495 5493 5492 5491 5491 5491 5488 5490 5491 5488 5486 5487 5488 5487 5489 5491 5492 5492
5536 5532 5528 5524 5520 5517 5514 5511 5509 5506 5505 5503 5502 5501 5501 5499 5497 5496 5493 5494 5492 5492 5495 5496 5496 5496 5493 5485 5481 5484 5488 5488 5488 5489 5493 5494 5494 5494 5493 5493 5492 5491 5492
5537 5533 5529 5525 5521 5518 5514 5511 5509 5508 5506 5504 5504 5505 5504 5502 5501 5498 5494 5487 5489 5487 5487 5487 5488 5488 5485 5482 5482 5482 5482 5484 5485 5489 5495 5495 5495 5494 5494 5493 5493 5492 5491